User: anonymous   Login
Location: Mauries
(43.6188°N, 0.3322°W)
Time: 05:11:52
(UTC+00:00)
Language:

Cosmos 1943 Rocket - Orbit

View from above orbital plane
View from above orbital plane
View from above satellite
View from above satellite

Ground track
Ground track

The orbit is defined by the following mean orbital elements,

1 19120U          26074.96963185 +.00000000 +00000-0 +87177-4 0 00006
2 19120  71.0143  55.2672 0023092 325.2120  34.7494 14.19617026    07
Epoch (UTC): 15 March 2026 23:16:16
Eccentricity: 0.0023092
inclination: 71.0143°
perigee height: 810 km
apogee height: 843 km
right ascension of ascending node: 55.2672°
argument of perigee: 325.2120°
revolutions per day: 14.19617026
mean anomaly at epoch: 34.7494°

The dashed part of the orbit path shows where the satellite is in the earth's shadow,  

DLR